Regional Weather Roundup
Issued by NWS Charleston, SC

Current Version | Previous Version | Text Only | Print | Product List | Glossary Off
Versions: 1 2 3 4 5 6 7 8 9 10 11 12 13 14 15 16 17 18 19 20 21 22 23 24 25 26 27 28 29 30 31 32 33 34 35 36 37 38 39 40 41 42 43 44 45 46 47 48 49 50

407
ASUS42 KCHS 100327
RWRCHS

REGIONAL WEATHER ROUNDUP
NATIONAL WEATHER SERVICE CHARLESTON SC
1000 PM EST TUE FEB 09 2016

NOTE: "FAIR" INDICATES FEW OR NO CLOUDS BELOW 12,000 FEET WITH NO
SIGNIFICANT WEATHER AND/OR OBSTRUCTIONS TO VISIBILITY.

NOT ALL STATIONS ARE QUALITY CONTROLLED BY THE NATIONAL
WEATHER SERVICE. USE DATA WITH CAUTION...ESPECIALLY
DEWPOINT OBSERVATIONS.

SCZ027-030-031-034>040-042>050-100400-
...SOUTHEAST SOUTH CAROLINA...

CITY           SKY/WX    TMP DP  RH WIND       PRES   REMARKS
N CHARLESTON   MOCLDY    39  22  50 W14G22    29.95R WCI  31
WATERFRONT PRK   N/A     40  25  55 W5        29.79R WCI  37
MOUNT PLEASANT CLOUDY    39  25  56 W10G16    29.95R WCI  32
JOHNS ISLAND   FAIR      39  25  56 W12       29.96R WCI  32
PINOPOLIS        N/A     39  27  60 W14       29.85R WCI  31
MONCKS CORNER  CLOUDY    34  19  55 W6        29.94R WCI  29
SUMMERVILLE    MOCLDY    36  27  69 W12G23    29.96S WCI  27
BEAUFORT MCAS  PTCLDY    39  23  52 W15G24    29.99R WCI  31
BEAUFORT ARPT  FAIR      39  23  52 W20G26    29.98R WCI  30
HILTON HEAD IS CLEAR     39  23  52 W13G21    30.01R WCI  32
WALTERBORO     PTCLDY    39  19  45 W16G28    29.97R WCI  30
ALLENDALE      FAIR      36  19  51 W7        29.98R WCI  30

...SOUTHERN MIDLANDS AND PEE DEE...

CITY           SKY/WX    TMP DP  RH WIND       PRES   REMARKS
GEORGETOWN     NOT AVBL
KINGSTREE      NOT AVBL
ORANGEBURG     PTCLDY    36  21  54 W14       29.93R WCI  27
BARNWELL       FAIR      36  23  60 W9        29.97R WCI  29
AIKEN          FAIR      32  19  59 W13G20    29.97R WCI  22
MANNING        FAIR      36  23  60 SW9       29.92S WCI  29
COLUMBIA       MOCLDY    36  21  54 W20G28    29.92R WCI  25
SUMTER         PTCLDY    35  22  59 W13       29.88R WCI  26
FLORENCE       CLOUDY    37  25  61 W18G25    29.87S WCI  27
MYRTLE BEACH   NOT AVBL
N MYRTLE BEACH MOCLDY    40  24  53 W10G24    29.88R WCI  33

$$

GAZ063-065-086>088-099>101-113>116-118-119-134>141-150-100400-
...SOUTHEAST GEORGIA...

CITY           SKY/WX    TMP DP  RH WIND       PRES   REMARKS
SAVANNAH ARPT  PTCLDY    39  20  46 NW17G25   30.01R WCI  30
HUNTER AAF     PTCLDY    40  24  53 W10       29.98R WCI  33
FORT STEWART   CLEAR     39  22  50 NW16G22   30.00R WCI  30
STATESBORO     CLEAR     39  18  43 W7        30.01R WCI  34
SYLVANIA       CLEAR     37  27  69 NW13      30.01R WCI  28
CLAXTON        FAIR      37  26  67 W7        30.02S WCI  31

...CSRA...CENTRAL AND FAR SOUTHEAST GEORGIA...

CITY           SKY/WX    TMP DP  RH WIND       PRES   REMARKS
THOMSON        CLEAR     34  21  60 W9        30.02R WCI  26
AUGUSTA-BUSH   CLEAR     33  19  56 W9        29.98R WCI  25
AUGUSTA-DANIEL CLEAR     34  16  47 W7G22     29.96S WCI  28
SWAINSBORO     MOCLDY    32  23  69 CALM      30.02R
VIDALIA        CLEAR     36  25  64 NW5       30.02S WCI  32
EASTMAN        FAIR      33  24  70 CALM      30.06S
HAZLEHURST     FAIR      36  26  66 W3        30.03R
ALMA           CLEAR     38  23  55 NW6       30.03R WCI  33
WAYCROSS       CLEAR     40  26  55 NW5       30.05R WCI  37
JESUP          FAIR      41  30  65 NW7       30.04R
BAXLEY         FAIR      37  27  65 NW3       30.04R
BRUNSWICK      CLEAR     43  23  45 W9G16     30.03R
SAINT SIMONS   CLEAR     43  22  43 NW9       30.01R

$$

SCZ027-028-034-036>038-045-046-048>050-GAZ119-141-100400-
...LAKE AND SUPPLEMENTAL COASTAL OBSERVATIONS...

STATION/POSITION TIME  TEMP    WIND        PRES    WAVE   SWELL
                       AIR SEA DIR/SP/G            HT/PER HT/PER/DIR
                 (UTC) (F)     (DEG/KT/KT) (MB)    (FT/S) (FT/S/D)
WINYAH BAY       0245   40     270/  8     1012.0R
LAKE MURRAY      0200   35     270/ 16/ 23 1012.2R
ACE BASIN NERRS  0200   40     290/  3     1014.0R
FORT PULASKI     0300   41 52  290/ 26/ 31 1016.1R
SAPELO ISLAND    0300   44     310/ 13     1016.0R

$$

ANZ835-935-AMZ111-154-330-350-352-354-370-450-454-472-100400-
...C-MAN AND BUOY OBSERVATIONS...

STATION/POSITION TIME  TEMP    WIND        PRES    WAVE   SWELL
                       AIR SEA DIR/SP/G            HT/PER HT/PER/DIR
                 (UTC) (F)     (DEG/KT/KT) (MB)    (FT/S) (FT/S/D)
BUOY 41004       0250   46 64  290/ 25/ 31 1012.5R   8/ 7   3/13
BUOY 41008       0250   46 54  310/ 27/ 35 1014.8R   4/ 4
FOLLY BEACH CMAN 0300   39     270/  8/ 15 1014.4R
CAPERS NEARSHORE 0208   42     290/ 16/ 21 1012.7R
FRIPP NEARSHORE  0200   44     290/ 16/ 17 1013.9R


STATION/POSITION TIME  TEMP    WIND        PRES    WAVE   SWELL
                       AIR SEA DIR/SP/G            HT/PER HT/PER/DIR
                 (UTC) (F)     (DEG/KT/KT) (MB)    (FT/S) (FT/S/D)
5E ST. MARYS GA  0221      56                N/A     2/17   2/ 70/17
FRYING PAN BUOY  0300   45 57  270/ 25/ 33 1011.5R
BUOY 41025       0250   47 73  280/ 25/ 33 1007.3R  10/14   7/ 80/14
CAPE LOOKOUT NC  NOT AVBL
BUOY 41002       0250   58 68  280/ 31/ 37   N/A    18/10  13/260/10
BUOY 41010       0220   64 72              1014.2R
ST AUGUSTINE FL  0300   48 56  270/  7/ 10 1017.6R


$$




USA.gov is the U.S. government's official web portal to all federal, state and local government web resources and services.